STARLINK-4726, 53802

Orbit data source: Space-Track

STARLINK-4726, 53802 is a payload satellite owned by SpaceX/Seattle (US) in LEO that was launched on Sun, 11 Sep 2022 UTC via an FALCON 9 launch vehicle from the Air Force Eastern Test Range (AFETR). Payload-class satellites include a variety of spacecraft equipped with specific instruments for various scientific and technological missions. These include communications satellites like Starlink; space stations such as the ISS; scientific satellites like the Hubble; Earth observation satellites from companies like Planet Labs, Umbra, and HawkEye 360; GPS; miniature CubeSats for education and research; and military/defense satellites.

Loading next visibility...
Identifier
53802, 2022-111AF
Orbit
LEO
Last TLE update
7 hours ago
Origin
Manufacturer
SpaceX/Seattle
Mission
Operational Commercial Communications
Bus & Motor
STARLINK, Unknown motor
Mass
305 kg wet, ~290 kg dry
Launch date (UTC)
2022-09-11 (3 years ago)
Launch vehicle
FALCON 9
Launch site
Air Force Eastern Test Range (AFETR)
Object type
Payload
Rocket body
Debris
Shape & HBR
Box + 1 Pan, 8.86 m
Radar Cross Section
13.562 m², Large (>1 m²)

Expand to show TLE details & history

TLE from 7 hours ago
0 STARLINK-4726
1 53802U 22111AF  25129.48460597  .00000788  00000-0  67604-4 0  9997
2 53802  53.2165 189.6130 0001353  88.8523 271.2624 15.08841383147081
Epoch: 2025-05-09T11:37Z
Definitive object data (Epoch: 2025-05-09T11:37:49.955Z)
Latitude
-0.00005°
Longitude
147.61473°
Altitude
540.616 km
Speed
7.593 km/s
True Right ascension
12h 38m 27s
True Declination
0° 00' 00"
Sunlit
Object was in full shadow at TLE epoch
Visualization TLE readout
Latitude
52.68119°
Longitude
-110.9158°
Altitude
545.259 km
Speed
7.596 km/s
Apparent Right ascension
16h 47m 29s
Apparent Declination
10° 50' 25"
Sunlit
Object is in daylight
Visualization observer readout
Local Sidereal Time
02:36:01
Azimuth
321.646° NNW
Elevation
-30.8°
Doppler factor
1
Orbital elements
Apogee altitude
540.92 km
Perigee altitude
539.048 km
Semi-major axis
6,918.121 km
Eccentricity
0.0001353
Inclination
53.2165°
RAAN
189.613°
Arg. of periapsis
88.8523°
True anomaly
271.2469°
Mean anomaly
271.2624°
Eccentric anomaly
271.25465°
Mean motion
3.77191 °/min
BSTAR
0.000067604
Orbital period
95.44 mins
Loading maneuver chart data...
Loading SW <> Apogee altitude chart data...
Loading historical data...
Loading historical data...
Loading historical data...
Loading historical data...
Loading historical data...
Loading historical data...
Loading historical data...

STARLINK-4726 Visibility forecast

Observer location: undefined°, undefined°

Span
Click to sort rows by Start time (UTC) header in descending order
Start Az.
Max El. time (UTC)
Max El. Az.
Max El.
End time (UTC)
End Az.
4 mins2025-05-10 05:16:13.799Z154.96° SSE2025-05-10 05:18:13.799Z123.245° SE14.255°2025-05-10 05:20:13.799Z92.837° ESE
6 mins2025-05-10 06:54:13.799Z238.459° WSW2025-05-10 06:57:13.799Z356.921° N43.144°2025-05-10 07:00:13.799Z45.459° ENE
4 mins2025-05-10 08:35:13.799Z310.297° NW2025-05-10 08:37:13.799Z347.377° N17.565°2025-05-10 08:39:13.799Z20.102° NNE
5 mins2025-05-10 11:56:13.799Z346.337° N2025-05-10 11:58:13.799Z25.902° NE20.636°2025-05-10 12:01:13.799Z75.117° E
6 mins2025-05-10 13:35:13.799Z306.164° NW2025-05-10 13:38:13.799Z164.089° S43.137°2025-05-10 13:41:13.799Z136.407° SSE
|